C/2019 J3 ( ATLAS )

Japanese version
Home page
Updated on March 26, 2020

---------------------------------------------------------------------

* Profile

Discovery Date May 14, 2019
Magnitude 18.7 mag
Discoverer Asteroid Terrestrial-Impact Last Alert System (ATLAS) search program

* Pictures

* Orbital Elements

Epoch 2019 July 16.0 TT = JDT 2458680.5
T 2019 Aug. 1.89935 TT                                  Rudenko
q   2.3734556            (2000.0)            P               Q
z  -0.0001588      Peri.   16.55539     -0.17982804     -0.63660956
 +/-0.0000388      Node   270.51703     -0.96597503     -0.02977987
e   1.0003769      Incl.  131.41332     -0.18588736     +0.77061107
From 218 observations 2019 May 14-Aug. 26, mean residual 0".6.

* Magnitudes Graph

        m1 = 12.5 + 5 log d + 10.0 log r

---------------------------------------------------------------------

The orbital elements are published on M.P.E.C. 2020-F67.
The magnitudes graphs are made with Comet for Windows.

---------------------------------------------------------------------

Copyright(C) Seiichi Yoshida (comet@aerith.net). All rights reserved.